Lander, WY

12:42 AM MDT on October 23, 2017 (GMT -0600)
Hunt

Weather History for KLND - March, 2013

Change the Weather History Date:

Wednesday, March 20, 2013

  Actual Average Record
Temperature  
Mean Temperature 37 °F 37 °F  
Max Temperature 55 °F 49 °F 72 °F (1997)
Min Temperature 18 °F 25 °F -13 °F (1903)
Degree Days  
Heating Degree Days 28 28  
Month to date heating degree days 560 625  
Since 1 July heating degree days 5929 6329  
Cooling Degree Days 0 0  
Month to date cooling degree days 0 0  
Year to date cooling degree days 0 0  
Moisture  
Dew Point 16 °F    
Average Humidity 50    
Maximum Humidity 74    
Minimum Humidity 26    
Precipitation  
Precipitation 0.00 in 0.04 in 1.27 in (1894)
Month to date precipitation T 0.66  
Year to date precipitation 1.98 1.65  
Snow  
Snow 0.00 in 0.60 in - ()
Month to date snowfall T 9.5  
Since 1 July snowfall 52.2 63.1  
Snow Depth 0.00 in    
Sea Level Pressure  
Sea Level Pressure 29.90 in    
Wind  
Wind Speed 5 mph (NW)    
Max Wind Speed 25 mph    
Max Gust Speed 30 mph    
Visibility 10 miles    
Events      
T = Trace of Precipitation, MM = Missing Value Source: NWS Daily Summary

Daily Weather History Graph

Daily Weather History Graph

Search for Another Location

Airport or City:

Trip Planner

Search our weather history database for the weather conditions in past years. The results will help you decide how hot, cold, wet, or windy it might be!

Date:

Astronomy

Mar. 20, 2013 Rise Set
Actual Time 7:17 AM MDT 7:27 PM MDT
Civil Twilight 6:49 AM MDT 7:55 PM MDT
Nautical Twilight 6:16 AM MDT 8:28 PM MDT
Astronomical Twilight 5:42 AM MDT 9:02 PM MDT
Moon 12:58 PM MDT (3/20) 3:07 AM MDT (3/20)
Length of Visible Light 13h 06m
Length of Day
12h 09m
First Quarter, 60% of the Moon is Illuminated
Mar 20
First Quarter
Mar 27
Full
Apr 2
Last Quarter
Apr 10
New
Apr 18
First Quarter

Hourly Weather History & Observations

Time (MDT) Temp. Windchill Dew Point Humidity Pressure Visibility Wind Dir Wind Speed Gust Speed Precip Events Conditions
12:53 AM 28.0 °F 24.2 °F 8.1 °F 43% 30.20 in 10.0 mi West 3.5 mph - N/A   Clear
1:53 AM 25.0 °F 17.1 °F 10.0 °F 53% 30.19 in 10.0 mi NNW 6.9 mph - N/A   Partly Cloudy
2:53 AM 21.9 °F 17.2 °F 10.0 °F 60% 30.18 in 10.0 mi East 3.5 mph - N/A   Mostly Cloudy
3:53 AM 23.0 °F 18.4 °F 10.9 °F 60% 30.13 in 10.0 mi WNW 3.5 mph - N/A   Clear
4:53 AM 21.0 °F 13.4 °F 10.9 °F 65% 30.10 in 10.0 mi West 5.8 mph - N/A   Clear
5:53 AM 19.0 °F 13.9 °F 10.9 °F 71% 30.11 in 10.0 mi SSE 3.5 mph - N/A   Clear
6:53 AM 19.9 °F - 12.0 °F 71% 30.09 in 10.0 mi Calm Calm - N/A   Clear
7:53 AM 19.9 °F 14.9 °F 12.0 °F 71% 30.08 in 10.0 mi West 3.5 mph - N/A   Clear
8:53 AM 23.0 °F 14.7 °F 15.1 °F 72% 30.06 in 10.0 mi NW 6.9 mph - N/A   Clear
9:53 AM 26.1 °F 20.5 °F 15.1 °F 63% 30.01 in 10.0 mi North 4.6 mph - N/A   Clear
10:53 AM 32.0 °F 28.7 °F 14.0 °F 48% 29.97 in 10.0 mi Variable 3.5 mph - N/A   Clear
11:53 AM 39.9 °F 37.8 °F 14.0 °F 35% 29.91 in 10.0 mi Variable 3.5 mph - N/A   Scattered Clouds
12:53 PM 44.1 °F 39.5 °F 14.0 °F 30% 29.84 in 10.0 mi East 8.1 mph - N/A   Overcast
1:53 PM 50.0 °F - 24.1 °F 36% 29.77 in 10.0 mi Calm Calm - N/A   Partly Cloudy
2:53 PM 51.1 °F - 21.0 °F 31% 29.74 in 10.0 mi North 6.9 mph - N/A   Clear
3:53 PM 53.1 °F - 19.9 °F 27% 29.71 in 10.0 mi NNE 5.8 mph - N/A   Clear
4:53 PM 53.1 °F - 19.9 °F 27% 29.72 in 10.0 mi NE 8.1 mph - N/A   Clear
5:53 PM 52.0 °F - 19.0 °F 27% 29.72 in 10.0 mi Calm Calm - N/A   Clear
6:53 PM 50.0 °F - 21.0 °F 32% 29.72 in 10.0 mi South 6.9 mph - N/A   Clear
7:53 PM 48.0 °F - 21.0 °F 34% 29.73 in 10.0 mi NW 10.4 mph - N/A   Clear
8:53 PM 46.0 °F - 23.0 °F 40% 29.73 in 10.0 mi Calm Calm - N/A   Clear
9:53 PM 43.0 °F 38.8 °F 21.9 °F 43% 29.71 in 10.0 mi SSE 6.9 mph - N/A   Clear
10:53 PM 43.0 °F 37.7 °F 23.0 °F 45% 29.66 in 10.0 mi South 9.2 mph - N/A   Mostly Cloudy
11:53 PM 37.9 °F 33.5 °F 23.0 °F 55% 29.64 in 10.0 mi NNW 5.8 mph - N/A   Overcast